Location: Prague
(50.0830°N, 14.4670°E)
Time: 16:59:13
(UTC+01:00)

QB50P2 - Visible Passes

Search period start: 20 March 2023 00:00
Search period end: 30 March 2023 01:00
Orbit: 585 x 598 km, 98.0° (Epoch: 19 March)

Date Brightness Start Highest point End Pass type
(mag) Time Alt. Az. Time Alt. Az. Time Alt. Az.
20 Mar ? 02:16:21 10° N 02:17:33 18° N 02:17:33 18° N visible
21 Mar ? 02:24:50 10° N 02:26:12 20° N 02:26:12 20° N visible
22 Mar ? 02:33:20 10° N 02:34:50 20° N 02:34:50 20° N visible
23 Mar ? 01:06:35 10° NE 01:06:53 12° NE 01:06:53 12° NE visible
23 Mar ? 02:41:51 10° N 02:43:28 21° NNW 02:43:28 21° NNW visible
24 Mar ? 01:14:50 10° NNE 01:15:30 14° NE 01:15:30 14° NE visible
24 Mar ? 02:50:22 10° N 02:52:05 21° NNW 02:52:05 21° NNW visible
25 Mar ? 01:23:07 10° NNE 01:24:06 16° NE 01:24:06 16° NE visible
25 Mar ? 02:58:54 10° N 03:00:41 20° NNW 03:00:41 20° NNW visible
26 Mar ? 01:31:24 10° NNE 01:32:42 19° NNE 01:32:42 19° NNE visible
26 Mar ? 04:07:27 10° N 04:09:16 19° NNW 04:09:16 19° NNW visible
27 Mar ? 02:39:43 10° NNE 02:41:17 21° NNE 02:41:17 21° NNE visible
27 Mar ? 04:16:01 10° NNW 04:17:51 17° NW 04:17:51 17° NW visible
28 Mar ? 02:48:03 10° NNE 02:49:50 24° NNE 02:49:50 24° NNE visible
28 Mar ? 04:24:38 10° NNW 04:26:24 16° NW 04:26:24 16° NW visible
29 Mar ? 02:56:23 10° NNE 02:58:23 28° NNE 02:58:23 28° NNE visible
29 Mar ? 04:33:18 10° NNW 04:34:57 14° NW 04:34:57 14° NW visible
